TimePDT,TemperatureF,Dew PointF,Humidity,Sea Level PressureIn,VisibilityMPH,Wind Direction,Wind SpeedMPH,Gust SpeedMPH,PrecipitationIn,Events,Conditions,WindDirDegrees,DateUTC
12:00 AM,60.8,48.2,63,30.12,9.0,South,20.7,29.9,N/A,,Overcast,190,2013-10-06 07:00:00
1:00 AM,60.8,48.2,63,30.12,9.0,South,16.1,29.9,N/A,,Overcast,180,2013-10-06 08:00:00
2:00 AM,60.8,48.2,63,30.11,9.0,South,12.7,27.6,N/A,,Overcast,170,2013-10-06 09:00:00
3:00 AM,59.0,48.2,67,30.09,9.0,SSE,5.8,17.3,N/A,,Overcast,150,2013-10-06 10:00:00
4:00 AM,59.0,48.2,67,30.07,9.0,SE,5.8,-,N/A,,Mostly Cloudy,140,2013-10-06 11:00:00
5:00 AM,57.2,48.2,72,30.06,9.0,South,8.1,-,N/A,,Overcast,170,2013-10-06 12:00:00
6:00 AM,57.2,48.2,72,30.05,9.0,SSE,3.5,-,N/A,,Mostly Cloudy,150,2013-10-06 13:00:00
7:00 AM,57.2,48.2,72,30.05,9.0,SSE,6.9,-,N/A,,Overcast,150,2013-10-06 14:00:00
8:00 AM,55.4,48.2,77,30.04,9.0,SSE,10.4,-,N/A,,Overcast,160,2013-10-06 15:00:00
9:00 AM,57.2,48.2,72,30.03,9.0,South,9.2,-,N/A,,Mostly Cloudy,170,2013-10-06 16:00:00
10:00 AM,59.0,48.2,67,30.02,9.0,South,6.9,-,N/A,,Clear,170,2013-10-06 17:00:00
11:00 AM,62.6,48.2,59,29.99,9.0,Variable,3.5,-,N/A,,Clear,0,2013-10-06 18:00:00
12:00 PM,64.4,50.0,59,29.95,9.0,South,4.6,-,N/A,,Clear,190,2013-10-06 19:00:00
1:00 PM,69.8,50.0,49,29.91,9.0,Variable,4.6,-,N/A,,Clear,0,2013-10-06 20:00:00
2:00 PM,71.6,50.0,46,29.85,9.0,Variable,2.3,-,N/A,,Clear,0,2013-10-06 21:00:00
2:58 PM,75.2,46.4,36,29.80,9.0,South,13.8,19.6,N/A,,Clear,190,2013-10-06 21:58:00
3:00 PM,75.2,46.4,36,29.80,9.0,South,15.0,20.7,N/A,,Clear,180,2013-10-06 22:00:00
4:00 PM,75.2,42.8,31,29.75,9.0,South,15.0,23.0,N/A,,Clear,190,2013-10-06 23:00:00
5:00 PM,71.6,44.6,38,29.73,9.0,South,12.7,18.4,N/A,,Clear,190,2013-10-07 00:00:00
6:00 PM,71.6,37.4,29,29.71,9.0,South,11.5,26.5,N/A,,Clear,190,2013-10-07 01:00:00
7:00 PM,68.0,35.6,30,29.70,9.0,South,16.1,27.6,N/A,,Clear,180,2013-10-07 02:00:00
8:00 PM,68.0,33.8,28,29.69,9.0,South,17.3,29.9,N/A,,Clear,180,2013-10-07 03:00:00
9:00 PM,68.0,35.6,30,29.67,9.0,South,26.5,38.0,N/A,,Clear,190,2013-10-07 04:00:00
10:00 PM,66.2,33.8,30,29.67,9.0,South,27.6,38.0,N/A,,Clear,190,2013-10-07 05:00:00
11:00 PM,66.2,32.0,28,29.69,9.0,South,19.6,34.5,N/A,,Clear,180,2013-10-07 06:00:00